RH
2 3 3 4 4 4 3 2 3 6 9 9 7 7 6 5 4 4 5 4 4 3 3 3 4 7 18 37 58 74 87 71 82 74 50 28 34 33 25 26 33 35 35 39 43
4 4 4 4 4 5 4 4 3 4 6 10 9 8 8 7 6 5 4 5 4 4 4 3 4 4 12 62 89 81 76 82 80 76 30 24 36 32 29 26 33 37 55 58 53
4 4 4 4 4 4 5 6 6 6 7 6 8 9 8 7 7 6 5 5 5 4 4 4 4 8 65 78 78 79 93 95 98 63 50 35 64 43 19 27 32 45 53 56 65
4 4 4 4 4 4 4 4 5 7 7 8 8 7 8 8 7 7 6 5 5 5 4 5 5 39 77 68 94 99 94 96 86 67 70 62 78 69 26 24 30 39 44 54 63
4 4 4 4 5 4 5 5 5 5 6 8 7 6 7 6 7 7 6 6 5 5 6 5 6 74 67 70 77 92 97 92 93 77 58 51 40 68 28 24 33 41 41 50 52
6 5 4 4 5 5 5 5 6 6 7 7 8 10 9 6 6 6 6 6 6 6 6 5 5 29 35 49 84 91 93 84 96 92 81 64 43 62 36 23 42 47 45 53 64
8 7 6 6 5 5 5 6 7 9 10 10 10 9 8 8 7 5 6 6 6 7 7 6 5 7 29 55 90 92 81 80 79 96 97 96 58 31 30 26 32 47 41 56 69
9 9 9 8 8 7 6 6 7 9 11 9 7 6 9 9 7 6 4 6 6 7 8 7 6 6 21 62 76 95 88 76 81 84 88 96 99 33 34 38 47 40 32 36 59
8 8 9 9 10 9 8 8 7 8 10 11 7 5 5 7 7 5 4 5 6 7 9 8 8 8 9 53 63 73 88 77 75 74 77 95 96 39 28 38 31 45 30 34 47
10 9 8 8 8 9 10 10 9 8 11 10 7 6 6 6 6 6 5 4 5 7 9 9 9 10 12 44 68 94 93 88 69 73 85 91 92 82 83 89 53 31 32 31 37
13 13 13 11 8 7 7 8 9 9 9 12 8 8 6 5 5 6 5 5 5 6 10 10 12 13 12 28 78 96 94 80 62 61 94 94 90 98 98 97 98 64 27 28 32
14 14 15 16 14 11 9 7 8 9 9 11 10 12 9 6 4 5 6 6 6 8 9 12 15 13 10 18 18 66 60 31 23 58 80 83 79 97 98 100 99 87 48 23 29
13 15 17 18 17 15 11 10 8 8 9 10 12 14 15 9 6 4 5 5 6 8 12 14 12 11 12 11 14 16 23 30 36 37 84 79 72 87 86 96 98 76 32 22 30
15 14 15 17 18 17 16 11 10 9 10 11 12 14 16 13 9 8 4 5 6 8 9 11 10 13 12 21 27 30 48 37 24 32 56 76 85 82 96 99 88 40 25 23 32
30 26 23 28 24 19 16 14 10 10 13 14 13 11 14 16 12 8 5 4 7 8 10 14 11 14 14 26 31 45 32 27 20 19 26 43 58 60 71 94 100 92 89 59 68
38 34 35 38 38 29 21 17 12 12 12 16 15 16 14 15 12 9 7 5 6 9 11 12 20 19 37 52 38 29 25 22 16 13 34 28 30 39 34 63 76 90 95 94 80
41 40 39 40 41 39 33 25 18 12 15 17 20 19 16 17 16 13 9 6 7 9 12 11 23 35 52 75 44 23 18 20 46 20 33 42 45 43 48 50 59 61 68 76 94
49 44 39 40 41 48 46 46 32 16 12 14 18 21 20 20 20 19 13 9 7 10 12 17 26 51 76 49 48 49 40 33 25 20 15 12 11 14 22 39 58 55 57 59 57
47 47 44 42 39 42 47 55 36 18 13 11 15 21 25 24 25 23 18 19 16 16 16 27 56 65 61 59 58 61 43 34 27 23 20 21 15 13 13 15 26 27 32 48 55
45 47 43 43 40 38 43 56 47 24 16 12 14 20 33 31 30 37 35 33 38 38 31 45 66 61 60 63 50 48 49 42 41 36 27 22 27 30 16 13 14 18 24 33 36
41 40 43 42 40 36 42 56 55 33 21 15 14 20 26 37 43 41 54 59 64 60 58 45 46 52 66 62 52 54 46 34 30 26 28 17 25 27 25 14 18 18 12 28 59
42 42 41 42 40 33 33 52 56 51 28 20 17 19 37 40 42 50 49 62 73 66 56 68 72 77 53 27 28 31 29 22 22 24 21 18 16 21 36 33 27 29 22 16 50
40 39 44 43 41 34 32 45 58 60 49 30 23 21 30 50 55 59 60 60 59 80 83 87 75 70 78 70 75 58 48 42 32 19 21 23 21 20 24 37 33 27 27 17 16
40 41 43 44 42 36 33 38 54 65 60 38 24 26 37 60 66 67 73 69 63 56 76 73 67 68 71 68 58 52 42 38 35 23 23 26 23 20 15 26 30 22 34 22 14
43 43 43 44 44 39 33 37 53 63 65 53 31 26 34 72 92 85 76 74 76 70 67 76 72 71 53 50 40 35 33 39 32 19 24 27 19 21 21 20 38 37 40 43 28
53 51 53 51 52 42 33 38 47 64 72 65 52 32 29 38 98 94 91 89 82 79 86 88 84 71 53 45 44 31 29 40 42 34 29 25 18 22 28 35 51 56 54 58 47
56 56 57 55 54 49 37 33 42 72 81 78 68 54 36 53 80 98 88 90 86 81 78 75 62 54 52 44 41 34 40 37 40 44 43 33 20 22 39 42 55 66 64 66 61
Wind_Speed
14 13 12 10 9 8 6 3 5 7 5 3 3 4 5 4 4 4 3 2 2 2 2 2 4 3 1 3 4 7 4 19 11 5 2 3 7 5 5 6 7 6 3 5 5
17 16 15 13 11 9 8 6 3 5 7 7 5 3 5 5 4 4 4 2 1 2 2 3 5 3 3 5 5 6 6 22 14 8 3 5 9 4 4 7 8 7 6 7 7
16 16 16 15 14 11 8 7 5 4 4 8 11 8 8 7 5 5 5 3 2 1 2 5 4 5 6 10 7 7 6 21 8 10 6 7 6 6 6 8 12 7 7 11 12
16 15 14 14 14 14 12 10 6 6 7 8 8 9 10 11 8 6 6 6 3 1 4 2 3 5 4 8 10 12 4 16 21 13 8 9 4 2 5 9 13 8 8 10 13
19 17 16 15 15 14 13 12 11 8 8 9 10 12 13 11 9 8 6 7 5 2 4 4 4 6 4 7 9 9 9 22 17 15 12 6 4 8 5 9 13 10 10 12 12
20 19 18 17 16 15 14 12 11 10 10 9 12 11 10 11 12 10 10 9 9 2 6 6 5 5 2 5 9 9 16 11 12 19 15 10 7 8 6 8 14 11 11 15 12
20 20 20 20 19 17 15 13 11 10 11 11 11 9 12 14 10 10 11 11 11 6 7 8 6 6 4 4 9 11 11 10 9 7 11 11 9 6 7 6 11 10 11 13 14
17 19 19 20 20 19 18 17 15 13 12 12 11 11 10 10 10 10 12 12 12 8 7 9 7 8 6 3 5 7 7 6 8 4 4 12 18 10 8 8 11 12 9 12 13
17 17 17 17 19 20 21 21 20 17 14 13 12 10 9 9 8 9 10 13 13 10 10 9 7 7 4 6 7 5 2 6 3 2 4 5 6 14 11 9 8 10 9 8 11
18 19 19 19 19 19 20 21 22 19 16 13 11 10 8 7 6 5 8 13 13 11 11 9 7 5 6 9 9 7 4 3 2 1 4 7 4 13 11 4 9 6 5 5 7
19 19 19 19 19 20 19 19 20 19 18 14 11 11 10 8 6 5 5 8 11 13 11 8 7 10 11 11 13 12 6 3 5 2 6 7 5 7 13 12 8 5 7 7 6
23 23 21 20 18 19 20 19 18 18 18 15 10 12 11 8 6 3 5 8 10 10 10 10 12 14 9 10 12 14 13 12 10 8 6 6 7 8 11 9 5 10 14 10 11
25 24 22 20 19 20 20 20 18 17 17 17 13 14 12 10 7 5 5 7 8 10 13 13 15 11 9 9 10 10 9 9 9 11 9 7 7 6 5 5 6 11 13 13 11
26 25 24 22 21 19 20 19 18 17 17 18 16 14 10 8 8 6 6 7 10 13 14 13 9 10 12 10 9 8 9 8 8 11 11 13 9 7 4 4 4 10 16 15 13
20 19 20 22 22 21 20 20 19 18 17 19 16 12 11 9 8 6 6 8 10 12 13 14 8 9 8 8 8 9 8 7 9 9 11 11 11 12 10 9 8 10 10 14 16
17 18 18 19 19 19 21 21 20 18 19 18 13 11 12 12 10 8 7 8 10 12 14 13 8 8 7 8 8 9 10 10 7 7 8 11 11 14 15 15 14 11 11 7 9
17 18 17 18 20 19 20 21 20 19 18 16 13 13 12 12 10 8 7 8 12 14 16 12 11 11 12 9 9 7 7 7 9 7 8 12 11 12 16 17 20 19 15 12 11
20 19 17 17 20 22 24 22 21 22 21 18 15 15 13 12 12 9 7 9 13 15 15 15 13 12 11 10 9 8 7 7 8 8 9 11 12 13 16 19 21 21 19 18 15
22 19 18 20 20 22 24 23 21 24 21 20 19 17 15 14 12 10 8 9 9 9 13 16 14 11 13 12 10 7 6 8 9 8 8 9 9 10 14 19 19 19 21 23 20
23 19 21 21 21 21 24 22 25 26 21 23 23 19 16 14 14 12 10 8 9 10 13 15 15 13 13 13 11 10 9 8 9 10 11 7 9 11 14 15 15 17 19 20 23
24 23 25 25 24 21 23 24 28 29 25 25 26 23 20 18 15 16 14 12 12 13 18 14 14 13 12 15 13 12 10 9 11 11 14 12 8 12 13 13 12 11 15 18 20
27 27 28 27 25 21 22 25 29 31 30 28 27 25 24 23 21 17 14 14 14 15 18 20 14 13 11 8 9 9 11 11 10 10 11 13 10 13 11 10 15 14 12 14 23
32 30 29 28 25 22 21 26 29 31 31 31 30 29 28 27 23 21 17 18 18 19 19 19 16 11 9 10 12 12 12 16 14 12 11 11 11 14 16 15 14 18 14 14 19
32 32 29 29 27 23 22 26 30 30 31 34 34 32 32 32 30 26 23 23 22 20 21 20 19 16 16 18 17 18 16 16 15 15 14 13 13 18 16 17 17 15 15 13 17
29 30 31 30 27 25 24 26 29 31 32 35 38 37 37 36 36 31 27 24 27 28 27 25 22 21 19 16 18 19 20 16 15 16 17 15 15 18 16 12 15 12 14 11 12
32 32 35 36 34 29 25 28 29 31 32 35 38 39 40 39 40 34 29 26 29 30 29 28 28 27 25 21 20 22 22 18 17 17 18 18 15 18 17 12 14 12 15 10 9
39 37 36 37 36 35 33 29 29 30 33 34 36 38 41 44 40 40 40 34 30 30 33 34 34 29 25 20 22 22 20 20 19 18 18 19 18 19 18 14 13 14 15 12 11
Wind_Direction
43 45 46 45 42 34 27 5 242 238 246 267 297 319 326 339 346 352 305 358 3 344 314 297 271 249 233 21 319 316 316 169 168 145 89 93 81 68 87 98 88 84 89 99 101
47 45 42 37 32 29 28 20 355 266 256 254 261 292 322 326 327 328 308 314 356 309 302 340 1 43 89 349 1 352 192 160 157 136 110 118 101 84 81 87 87 90 95 94 96
42 40 38 37 32 26 14 3 357 332 318 278 259 269 287 300 310 301 297 290 265 283 21 36 52 92 73 356 279 305 190 178 193 125 112 142 124 60 84 90 77 84 99 110 96
34 33 32 29 30 27 22 10 337 312 292 288 289 277 274 280 288 287 277 280 250 222 79 120 127 121 102 24 40 24 193 177 161 144 141 193 211 124 72 95 85 84 105 109 93
34 32 28 28 27 24 19 17 12 348 292 284 289 277 279 281 270 266 263 267 259 136 122 184 160 117 104 58 47 69 111 166 159 162 142 151 158 136 101 98 90 99 103 100 88
33 31 29 26 26 24 20 14 7 358 351 319 281 279 294 292 273 260 254 250 260 182 173 214 183 169 131 72 66 84 65 76 182 177 163 157 135 133 125 110 103 102 107 113 111
23 23 21 22 20 17 12 8 2 351 344 336 334 325 289 290 286 262 254 244 247 218 192 218 196 187 184 119 95 97 71 72 62 122 155 158 154 112 127 93 112 113 113 118 121
4 5 8 9 6 5 4 0 356 345 337 335 328 308 297 293 288 275 251 244 241 239 210 226 215 202 210 138 143 111 90 74 77 98 137 191 173 154 136 117 107 114 117 120 120
348 347 347 351 351 352 355 358 356 348 339 339 339 328 304 291 293 277 257 245 238 226 219 231 227 225 214 181 188 204 146 148 98 51 114 96 186 129 137 131 113 117 122 130 129
336 336 337 339 334 335 342 348 352 351 347 344 346 345 334 307 283 285 260 247 243 228 224 228 227 226 215 189 205 210 200 165 94 8 126 114 140 154 159 160 112 125 144 149 155
324 325 327 333 332 331 331 333 343 348 349 341 347 357 355 336 304 275 266 245 237 229 222 216 211 220 207 192 207 203 211 243 295 277 145 149 134 169 162 189 183 164 190 193 187
316 316 318 321 325 325 328 328 332 340 345 341 339 358 352 351 334 288 243 235 233 230 234 212 208 225 218 204 219 226 237 256 254 211 146 153 143 126 152 131 292 209 197 201 188
309 309 310 312 314 315 319 323 325 329 334 341 336 324 337 342 337 306 253 233 227 221 223 217 223 231 226 214 221 239 256 250 237 222 195 187 179 177 181 140 181 165 179 185 195
306 303 303 303 302 303 306 309 313 316 319 326 334 325 322 323 316 298 263 236 221 222 222 228 227 222 218 214 223 228 247 246 235 222 210 214 203 192 204 185 178 166 182 181 188
322 308 306 308 298 291 292 296 300 301 300 317 326 331 327 305 294 287 257 231 220 218 220 228 221 226 225 203 233 247 255 262 239 222 226 233 235 223 204 208 200 196 197 213 201
315 312 310 308 304 288 284 286 287 287 293 299 304 315 317 309 292 278 255 240 225 217 216 220 221 232 225 231 245 256 263 251 236 210 216 224 236 254 251 231 231 228 238 236 213
319 311 309 307 300 291 286 281 280 279 281 286 289 295 306 293 287 276 270 246 220 215 212 217 200 214 222 244 261 253 244 248 255 250 232 244 239 242 248 247 237 234 236 238 242
310 307 311 314 303 288 285 280 275 270 271 268 272 276 291 286 273 258 238 239 230 219 219 200 200 203 218 232 250 258 262 267 275 263 257 246 247 242 244 246 247 247 245 245 238
313 310 307 313 306 290 286 284 271 262 263 265 262 260 272 260 255 259 235 224 221 223 212 196 195 212 239 242 254 264 276 260 269 282 282 280 266 258 248 245 249 256 257 252 244
328 316 315 315 310 295 283 279 269 263 256 255 257 255 255 252 248 246 248 226 216 212 214 204 204 222 230 238 252 256 257 270 274 289 296 280 274 271 258 258 255 254 264 260 258
323 319 320 318 315 298 282 270 264 262 257 250 251 253 254 253 251 255 251 232 217 214 219 222 219 235 244 254 251 248 265 262 264 275 289 290 275 280 285 272 274 272 266 256 238
317 315 313 310 312 300 280 266 262 260 257 256 250 251 249 254 257 247 264 246 222 213 203 217 231 252 249 246 250 267 276 275 282 295 294 302 289 286 291 282 272 278 275 252 235
314 311 308 308 310 297 279 260 255 258 260 258 252 249 250 249 252 259 259 261 238 224 221 227 231 244 268 270 282 280 289 294 295 299 297 290 292 286 278 281 275 283 285 263 248
310 310 309 306 306 297 283 263 256 254 252 252 251 248 246 245 249 250 256 257 256 248 248 250 250 244 255 266 264 263 269 283 275 279 284 283 295 291 283 272 277 275 288 280 253
305 306 305 306 302 294 283 268 255 252 250 246 247 245 242 242 246 251 255 251 253 255 252 257 264 269 268 267 268 261 266 272 265 265 276 280 289 284 290 276 276 280 291 298 269
302 301 301 302 303 292 279 267 257 251 249 246 244 245 245 239 240 243 240 244 250 252 255 260 266 269 276 270 262 259 262 266 267 269 275 277 278 280 287 266 268 268 276 283 268
303 302 303 301 296 292 285 272 259 252 245 246 246 243 242 241 239 237 238 239 237 241 248 252 260 269 271 263 255 258 263 265 266 268 270 273 263 273 277 261 261 263 265 265 266